Location: Unnamed
(42.1164°N, 2.7652°E)
Time: 20:00:07
(UTC+02:00)

ISS - Pass Details

Date: 07 May 2021
Orbit: 417 x 422 km, 51.6° (Epoch: 14 June)

Event Time Altitude Azimuth Distance (km) Brightness Sun altitude
Exits shadow 03:33:27 25° 359° (N) 899 -1.6 -26.0°
Drops below altitude 10° 03:35:46 10° 39° (NE) 1,510 0.1 -25.8°
Sets 03:38:06 0° 53° (NE) 2,377 1.1 -25.6°
